#timestamp,LO_Frequency,Hit,StdDev 
1554681615.3,286011688.4,N
1554681635.2,286011688.3,N
1554681655.0,286011686.1,N
1554681655.9,286011686.1,N
1554681675.8,286011688.6,N
1554681695.6,286011688.5,N
1554681715.4,286011688.1,N
1554681735.3,286011687.9,N
1554681755.1,286011687.8,N
1554681775.8,286011687.6,N
1554681795.7,286011688.2,N
1554681815.5,286011688.0,N
1554681835.4,286011688.1,N
1554681855.2,286011687.9,N
1554681875.0,286011687.3,N
1554681875.9,286011687.3,N
1554681895.8,286011690.4,N
1554681915.6,286011690.4,N
1554681935.4,286011690.3,N
1554681955.3,286011687.4,N
1554681975.1,286011690.2,N
1554681995.9,286011687.3,N
1554682015.7,286011690.4,N
1554682035.5,286011689.7,N
1554682055.4,286011690.3,N
1554682075.2,286011689.7,N
1554682095.0,286011690.0,N
1554682096.0,286011690.0,N
1554682115.8,286011689.6,N
1554682135.6,286011689.9,Y
1554682155.5,286047002.6,P
1554682175.3,286046999.7,N
1554682195.1,286046999.8,N
1554682215.9,286046999.8,N
1554682235.7,286046999.7,N
1554682255.6,286047002.4,N
1554682275.4,286047002.7,N
1554682295.2,286047002.4,N
1554682315.1,286043264.9,N
1554682316.0,286047002.6,N
1554682335.8,286047002.2,N
1554682355.6,286047002.5,N
1554682375.5,286047002.7,N
1554682395.3,286047002.1,N
1554682415.2,286047002.2,N
1554682435.9,286047002.5,N
1554682455.7,286047002.5,N
1554682475.6,286047002.2,N
1554682495.4,286047002.5,N
1554682515.2,286047002.1,N
1554682535.1,286047001.4,N
1554682536.0,286047001.4,N
1554682555.8,286047002.0,N
1554682575.7,286047001.9,N
1554682595.5,286047001.3,N
1554682615.3,286047002.0,N
1554682635.2,286047002.0,N
1554682655.0,286047002.1,N
1554682655.9,286047002.1,N
1554682675.7,286047001.9,N
1554682695.6,286047004.4,N
1554682715.4,286047001.6,N
1554682735.3,286047001.9,N
1554682755.1,286047001.9,N
1554682756.0,286047001.9,N
1554682775.8,286047001.5,N
1554682795.7,286047001.8,N
1554682815.5,286047001.4,N
1554682835.3,286047001.3,N
1554682855.2,286047001.3,N
1554682875.0,286047001.3,N
1554682875.9,286047001.3,N
1554682895.8,286047001.7,N
1554682915.6,286047001.7,N
1554682935.4,286047001.3,N
1554682955.3,286047001.3,N
1554682975.1,286047001.4,N
1554682995.9,286047001.3,N
1554683015.7,286047004.4,Y
1554683035.5,286046999.8,P
1554683055.4,286046999.7,N
1554683075.2,286047002.7,N
1554683095.0,286047002.4,N
1554683096.0,286047002.4,N
1554683115.8,286047002.4,N
1554683135.6,286047002.3,N
1554683155.5,286047002.4,N
1554683175.3,286047002.1,N
1554683195.1,286047002.8,N
1554683215.9,286047002.7,N
1554683235.7,286047002.6,N
1554683255.6,286047002.4,N
1554683275.4,286047002.6,N
1554683295.2,286047002.6,N
1554683315.1,286047002.2,N
1554683316.0,286047002.2,N
1554683335.8,286047002.3,N
1554683355.6,286047002.5,N
1554683375.5,286047002.2,N
1554683395.3,286047002.2,N
1554683415.2,286047002.5,Y
1554683435.9,286047000.5,P
1554683455.7,286047001.1,N
1554683475.6,286047000.8,N
1554683495.4,286047000.6,N
1554683515.2,286047000.9,N
1554683535.1,286047001.0,N
1554683536.0,286047001.0,N
1554683555.8,286047000.9,N
1554683575.7,286047000.5,N
1554683595.5,286047000.5,N
1554683615.3,286047000.4,N
1554683635.2,286047000.6,N
1554683655.0,286047000.6,N
1554683655.9,286047000.6,N
1554683675.7,286047000.6,N
1554683695.6,286047000.5,N
1554683715.4,286047000.5,N
1554683735.3,286047000.1,N
1554683755.1,286047000.6,N
1554683756.0,286047000.6,N
1554683775.8,286047000.6,N
1554683795.7,286047000.9,N
1554683815.5,286047000.6,N
1554683835.3,286047000.8,N
1554683855.2,286047000.5,N
1554683875.0,286047000.5,N
1554683875.9,286047000.5,N
1554683895.8,286047000.6,N
1554683915.6,286047000.1,N
1554683935.4,286047001.0,N
1554683955.3,286047000.3,N
1554683975.1,286047000.4,N
1554683995.8,286047000.0,N
1554684015.7,286047000.3,N
1554684035.5,286047000.0,N
1554684055.4,286047000.0,N
1554684075.2,286047000.4,N
1554684095.0,286047000.3,N
1554684095.9,286047000.3,N
1554684115.8,286046999.9,N
1554684135.6,286047000.2,N
1554684155.4,286047000.2,N
1554684175.3,286047000.2,N
1554684195.1,286046999.8,N
1554684215.9,286046999.9,N
1554684235.7,286047000.2,N
1554684255.5,286047000.2,N
1554684275.4,286047000.1,N
1554684295.2,286047000.2,N
1554684315.0,286047000.2,N
1554684315.9,286047000.2,N
1554684335.8,286047000.1,N
1554684355.6,286047002.4,Y
1554684375.5,286047000.3,P
1554684395.3,286047000.3,P
1554684415.1,286047000.4,P
1554684435.9,286047000.5,Y
1554684455.7,286047000.9,P
1554684475.6,286047001.0,P
1554684495.4,286042750.9,P
1554684515.2,286047000.5,N
1554684535.1,286047000.7,N
1554684536.0,286047000.7,N
1554684555.8,286047000.3,N
1554684575.6,286047000.0,N
1554684595.5,286047000.0,N
1554684615.3,286047000.0,N
1554684635.2,286046999.9,N
1554684655.9,286046999.8,N
1554684675.7,286047000.1,N
1554684695.6,286047000.3,N
1554684715.4,286046999.7,N
1554684735.2,286047000.0,N
1554684755.1,286046999.9,N
1554684756.0,286046999.9,N
1554684775.8,286046999.9,N
1554684795.7,286047002.7,N
1554684815.5,286047000.1,N
1554684835.3,286046999.8,N
1554684855.2,286047002.8,N
1554684875.0,286047002.8,N
1554684875.9,286047002.8,N
1554684895.8,286046999.7,N
1554684915.6,286047002.8,N
1554684935.4,286046999.7,N
1554684955.3,286047000.2,N
1554684975.1,286047002.7,N
1554684995.8,286047000.1,N
1554685015.7,286047002.3,N
1554685035.5,286047000.1,N
1554685055.4,286047000.1,N
1554685075.2,286046999.8,N
1554685095.0,286046999.8,N
1554685095.9,286046999.8,N
1554685115.8,286046999.7,N
1554685135.6,286047002.8,N
1554685155.4,286047002.4,N
1554685175.3,286047002.6,N
1554685195.1,286047002.8,N
